Blacksburg, VA

9:52 AM EST on February 06, 2016 (GMT -0500)
Virginia Tech

Weather History for KBCB - August, 2012

Change the Weather History Date:

Thursday, August 2, 2012

  Actual Average Record
Temperature  
Mean Temperature 74 °F 71 °F  
Max Temperature 87 °F 82 °F 92 °F (1953)
Min Temperature 61 °F 60 °F 49 °F (1998)
Degree Days  
Heating Degree Days 0 0  
Month to date heating degree days 0 0  
Since 1 June heating degree days 43 44  
Since 1 July heating degree days 0 6  
Cooling Degree Days 9 6  
Month to date cooling degree days 15 12  
Year to date cooling degree days 497 356  
Since 1 June cooling degree days 432 327  
Growing Degree Days 24 (Base 50)    
Moisture  
Dew Point 67 °F    
Average Humidity 72    
Maximum Humidity 100    
Minimum Humidity 43    
Precipitation  
Precipitation 0.00 in 0.12 in 0.65 in (1971)
Month to date precipitation 0.00 0.25  
Year to date precipitation 24.86 25.85  
Snow  
Snow 0.00 in - - ()
Month to date snowfall 0.0  
Since 1 June snowfall T  
Since 1 July snowfall T  
Snow Depth 0.00 in    
Sea Level Pressure  
Sea Level Pressure 30.02 in    
Wind  
Wind Speed 1 mph (WNW)    
Max Wind Speed 7 mph    
Max Gust Speed -    
Visibility 7 miles    
Events Fog    
T = Trace of Precipitation, MM = Missing Value Source: NWS Daily Summary

Daily Weather History Graph

Daily Weather History Graph

Search for Another Location

Airport or City:

Trip Planner

Search our weather history database for the weather conditions in past years. The results will help you decide how hot, cold, wet, or windy it might be!

Date:

Astronomy

Aug. 02, 2012 Rise Set
Actual Time 6:27 AM EDT 8:27 PM EDT
Civil Twilight 5:58 AM EDT 8:56 PM EDT
Nautical Twilight 5:23 AM EDT 9:31 PM EDT
Astronomical Twilight 4:46 AM EDT 10:08 PM EDT
Moon 8:35 PM EDT (8/2) 7:00 AM EDT (8/2)
Length of Visible Light 14h 57m
Length of Day
13h 59m
Full, 100% of the Moon is Illuminated
Aug 2
Full
Aug 9
Last Quarter
Aug 17
New
Aug 24
First Quarter
Aug 31
Full

Hourly Weather History & Observations

Time (EDT) Temp. Heat Index Dew Point Humidity Pressure Visibility Wind Dir Wind Speed Gust Speed Precip Events Conditions
12:15 AM 68.0 °F - 68.0 °F 100% 30.00 in 7.0 mi Calm Calm - N/A   Clear
12:35 AM 69.8 °F - 68.0 °F 94% 30.00 in 10.0 mi Calm Calm - N/A   Clear
1:15 AM 68.0 °F - 66.2 °F 94% 29.99 in 7.0 mi Calm Calm - N/A   Clear
1:35 AM 66.2 °F - 66.2 °F 100% 29.99 in 5.0 mi Calm Calm - N/A   Clear
1:55 AM 66.2 °F - 66.2 °F 100% 30.00 in 5.0 mi Calm Calm - N/A   Clear
2:35 AM 66.2 °F - 66.2 °F 100% 30.00 in 5.0 mi Calm Calm - N/A   Scattered Clouds
3:15 AM 66.2 °F - 66.2 °F 100% 30.00 in 4.0 mi Calm Calm - N/A   Clear
3:35 AM 66.2 °F - 66.2 °F 100% 30.00 in 5.0 mi Calm Calm - N/A   Clear
3:55 AM 64.4 °F - 64.4 °F 100% 29.99 in 4.0 mi Calm Calm - N/A   Clear
4:15 AM 64.4 °F - 64.4 °F 100% 29.99 in 5.0 mi Calm Calm - N/A   Clear
4:35 AM 64.4 °F - 64.4 °F 100% 30.00 in 5.0 mi South 3.5 mph - N/A   Clear
5:35 AM 64.4 °F - 64.4 °F 100% 30.00 in 3.0 mi Calm Calm - N/A   Clear
5:55 AM 64.4 °F - 64.4 °F 100% 30.00 in 3.0 mi Calm Calm - N/A   Clear
6:15 AM 62.6 °F - 62.6 °F 100% 30.00 in 1.8 mi Calm Calm - N/A   Mist
6:35 AM 62.6 °F - 62.6 °F 100% 30.01 in 1.0 mi Calm Calm - N/A   Mist
6:55 AM 62.6 °F - 62.6 °F 100% 30.02 in 1.0 mi Calm Calm - N/A   Mist
7:15 AM 64.4 °F - 64.4 °F 100% 30.02 in 1.5 mi Calm Calm - N/A   Mostly Cloudy
7:35 AM 64.4 °F - 64.4 °F 100% 30.02 in 0.2 mi Calm Calm - N/A Fog Fog
7:55 AM 66.2 °F - 66.2 °F 100% 30.02 in 1.5 mi Calm Calm - N/A   Mostly Cloudy
8:15 AM 66.2 °F - 66.2 °F 100% 30.02 in 2.5 mi Calm Calm - N/A   Clear
8:35 AM 69.8 °F - 69.8 °F 100% 30.03 in 4.0 mi Calm Calm - N/A   Clear
8:55 AM 71.6 °F - 69.8 °F 94% 30.03 in 4.0 mi Calm Calm - N/A   Clear
9:15 AM 71.6 °F - 69.8 °F 94% 30.03 in 5.0 mi West 3.5 mph - N/A   Clear
9:35 AM 73.4 °F - 71.6 °F 94% 30.03 in 5.0 mi NW 4.6 mph - N/A   Clear
9:55 AM 75.2 °F - 71.6 °F 89% 30.03 in 7.0 mi Calm Calm - N/A   Clear
10:15 AM 75.2 °F - 71.6 °F 89% 30.04 in - Calm Calm - N/A   Clear
10:35 AM 78.8 °F - 71.6 °F 78% 30.04 in 10.0 mi NNW 3.5 mph - N/A   Clear
10:55 AM 78.8 °F - 71.6 °F 78% 30.04 in 10.0 mi Calm Calm - N/A   Clear
11:15 AM 80.6 °F 84.6 °F 71.6 °F 74% 30.05 in 10.0 mi Calm Calm - N/A   Clear
11:35 AM 80.6 °F 84.6 °F 71.6 °F 74% 30.04 in 10.0 mi Calm Calm - N/A   Clear
11:55 AM 80.6 °F 83.9 °F 69.8 °F 70% 30.04 in 10.0 mi SE 3.5 mph - N/A   Clear
12:15 PM 82.4 °F 87.2 °F 71.6 °F 70% 30.04 in 7.0 mi Calm Calm - N/A   Clear
12:35 PM 84.2 °F 87.3 °F 68.0 °F 58% 30.04 in 10.0 mi Calm Calm - N/A   Clear
12:55 PM 84.2 °F 86.6 °F 66.2 °F 55% 30.04 in 10.0 mi Calm Calm - N/A   Clear
1:15 PM 84.2 °F 85.6 °F 64.4 °F 51% 30.03 in 10.0 mi Calm Calm - N/A   Clear
1:35 PM 84.2 °F 86.6 °F 66.2 °F 55% 30.03 in 10.0 mi WNW 4.6 mph - N/A   Clear
2:15 PM 86.0 °F 88.2 °F 66.2 °F 51% 30.02 in 10.0 mi West 8.1 mph - N/A   Scattered Clouds
2:35 PM 86.0 °F 88.2 °F 66.2 °F 51% 30.02 in 10.0 mi West 4.6 mph - N/A   Clear
2:55 PM 87.8 °F 90.4 °F 66.2 °F 49% 30.01 in 10.0 mi WSW 4.6 mph - N/A   Clear
3:15 PM 87.8 °F 90.4 °F 66.2 °F 49% 30.00 in 10.0 mi NW 5.8 mph - N/A   Clear
3:35 PM 87.8 °F 89.4 °F 64.4 °F 46% 30.00 in 10.0 mi Calm Calm - N/A   Clear
3:55 PM 87.8 °F 90.4 °F 66.2 °F 49% 29.99 in 10.0 mi WNW 6.9 mph - N/A   Clear
4:15 PM 87.8 °F 89.4 °F 64.4 °F 46% 29.99 in 10.0 mi WNW 5.8 mph - N/A   Clear
4:55 PM 87.8 °F 88.5 °F 62.6 °F 43% 29.98 in 10.0 mi NW 3.5 mph - N/A   Clear
5:15 PM 87.8 °F 89.4 °F 64.4 °F 46% 29.98 in 10.0 mi Calm Calm - N/A   Clear
5:35 PM 87.8 °F 89.4 °F 64.4 °F 46% 29.99 in 10.0 mi Calm Calm - N/A   Clear
5:55 PM 87.8 °F 89.4 °F 64.4 °F 46% 29.99 in 10.0 mi Calm Calm - N/A   Clear
6:15 PM 86.0 °F 88.2 °F 66.2 °F 51% 29.99 in 10.0 mi NW 3.5 mph - N/A   Clear
6:35 PM 87.8 °F 90.4 °F 66.2 °F 49% 29.99 in 10.0 mi WNW 3.5 mph - N/A   Clear
6:55 PM 87.8 °F 90.4 °F 66.2 °F 49% 30.00 in 10.0 mi Calm Calm - N/A   Clear
7:15 PM 84.2 °F 87.3 °F 68.0 °F 58% 30.00 in 10.0 mi Calm Calm - N/A   Clear
7:35 PM 82.4 °F 87.2 °F 71.6 °F 70% 30.01 in 10.0 mi Calm Calm - N/A   Clear
7:55 PM 80.6 °F 84.6 °F 71.6 °F 74% 30.01 in 10.0 mi Calm Calm - N/A   Clear
8:15 PM 80.6 °F 83.9 °F 69.8 °F 70% 30.02 in 7.0 mi East 3.5 mph - N/A   Clear
8:35 PM 78.8 °F - 69.8 °F 74% 30.02 in 7.0 mi ESE 4.6 mph - N/A   Clear
8:55 PM 78.8 °F - 69.8 °F 74% 30.03 in 10.0 mi ESE 4.6 mph - N/A   Clear
9:15 PM 78.8 °F - 69.8 °F 74% 30.03 in 10.0 mi SE 4.6 mph - N/A   Clear
9:35 PM 75.2 °F - 69.8 °F 83% 30.03 in 10.0 mi ESE 3.5 mph - N/A   Clear
9:55 PM 75.2 °F - 69.8 °F 83% 30.03 in 10.0 mi Calm Calm - N/A   Scattered Clouds
10:15 PM 71.6 °F - 69.8 °F 94% 30.04 in 10.0 mi Calm Calm - N/A   Clear
10:35 PM 71.6 °F - 71.6 °F 100% 30.04 in 10.0 mi Calm Calm - N/A   Clear
10:55 PM 69.8 °F - 69.8 °F 100% 30.05 in 7.0 mi Calm Calm - N/A   Clear
11:15 PM 69.8 °F - 69.8 °F 100% 30.05 in 7.0 mi Calm Calm - N/A   Clear
11:35 PM 69.8 °F - 69.8 °F 100% 30.05 in 7.0 mi Calm Calm - N/A   Clear
11:55 PM 69.8 °F - 69.8 °F 100% 30.05 in 7.0 mi Calm Calm - N/A   Clear